2019-093A (44879 NORAD) Tracking and Keplerian Element Data

This shows tracking and keplerian element data for the satellite.

Feedback or suggestion? Click here.




ElementValue
Catalog44879
Name2019-093A
Epoch Orbit1555
Epoch Day94.15299637
Epoch Year2020
RAAN170.6813
Inclination97.9614
Eccentricity0.001363
Argument of Perigee284.1989
Mean Anonmoly75.7727
Mean Motion14.81400954
Decay Rate1.2E-06
L11 44879U 19093A 20094.15299637 .00000120 00000-0 22251-4 0 9990
L22 44879 97.9614 170.6813 0013630 284.1989 75.7727 14.81400954 15557

Live tracking and technical data element details for 2019-093A (NORAD 44879). 2019-093A can be tracked NOW for your location showing map with azimuth and elevation plus other details from your city location.

Track the satellite on the map from your city or location and see movement details for azimuth, elevation, latitude, longitude, range, height, and movement on the map or in text.







IsCatalogInMostPopularTable: catalog: 44879, numindb: 30
Update: records affected: 1



GetName: 44879 2019-093A

Hit Count: updated at: Fri, 10 Apr 2020 18:10:42 GMT